Regional Weather Roundup
Issued by NWS

Home | Current Version | Previous Version | Text Only | Print | Product List | Glossary Off
Versions: 1 2 3 4 5 6 7 8 9 10 11 12 13 14 15 16 17 18 19 20 21 22 23 24 25 26 27 28 29 30 31 32 33 34 35 36 37 38 39 40 41 42 43 44 45 46 47 48 49 50

813
ASUS43 KBIS 191202
RWRND

NORTH DAKOTA REGIONAL WEATHER ROUNDUP
NATIONAL WEATHER SERVICE BISMARCK ND
600 AM CST SUN NOV 19 2017

NOTE: "FAIR" INDICATES FEW OR NO CLOUDS BELOW 12,000 FEET WITH NO
SIGNIFICANT WEATHER AND/OR OBSTRUCTIONS TO VISIBILITY.


NDZ001>003-009>011-017-191300-
NORTHWEST NORTH DAKOTA

CITY           SKY/WX    TMP DP  RH WIND       PRES   REMARKS
WILLISTON      CLOUDY    21  18  88 SW5       29.88F WCI  15
6HR MIN TEMP:  20; 6HR MAX TEMP:  28;

MINOT          CLOUDY    32  23  69 SW17      29.85F
$$

NDZ018>021-031>035-040>046-191300-
SOUTHWEST NORTH DAKOTA

CITY           SKY/WX    TMP DP  RH WIND       PRES   REMARKS
BISMARCK       PTCLDY    23  20  88 SE3       29.95F
6HR MIN TEMP:  14; 6HR MAX TEMP:  28;

DICKINSON      CLOUDY    27  19  72 W14       29.90F WCI  16
GARRISON         N/A     28  24  85 W15       29.87F WCI  16
6HR MIN TEMP:  20; 6HR MAX TEMP:  30;

HETTINGER ARPT CLOUDY    21  15  78 NW8       29.96F WCI  11
$$

NDZ004>008-012>016-024-026-027-054-191300-
NORTHEAST NORTH DAKOTA

CITY           SKY/WX    TMP DP  RH WIND       PRES   REMARKS
GRAND FORKS    MOCLDY    15  11  83 S8        29.94F WCI   4
DEVILS LAKE    CLOUDY    23  19  85 SW9       29.89F WCI  13
$$

NDZ022-023-025-028>030-036>039-047>053-191300-
SOUTHEAST NORTH DAKOTA

CITY           SKY/WX    TMP DP  RH WIND       PRES   REMARKS
FARGO          PTCLDY    17  12  80 SE6       29.98F WCI   9
6HR MIN TEMP:  11; 6HR MAX TEMP:  17;

JAMESTOWN      CLOUDY    23  19  85 CALM      29.93F
$$





USA.gov is the U.S. government's official web portal to all federal, state and local government web resources and services.